Temp
43 42 43 40 41 40 40 40 39 37 37 36 34 33 33 33 32 30 31 30 29 29
42 41 41 38 37 39 38 39 36 37 35 35 34 33 32 32 31 31 31 30 30 28
42 42 40 36 37 37 38 37 34 36 36 34 34 33 32 31 30 31 30 30 28 27
39 38 36 36 38 38 37 36 34 36 36 34 34 33 32 32 30 30 29 29 29 28
37 35 36 38 38 38 37 36 36 36 35 34 34 34 33 31 31 30 28 28 28 27
36 35 37 39 38 38 37 35 36 35 34 34 34 33 34 33 31 31 30 28 28 27
35 37 39 39 37 35 36 35 35 35 35 35 34 33 33 33 31 30 29 28 28 26
38 38 38 36 35 34 35 36 36 35 34 34 33 33 32 32 30 29 27 27 27 26
36 35 34 34 34 33 33 35 34 33 33 32 33 37 36 34 30 29 27 24 25 25
34 33 33 32 30 32 32 33 32 33 32 31 32 37 37 36 31 29 28 26 25 24
33 32 32 29 30 31 32 31 31 31 31 32 32 37 38 36 30 29 28 27 26 26
30 30 31 29 29 30 30 29 30 31 30 29 30 36 37 35 27 27 26 27 26 26
29 28 27 29 27 28 28 29 29 28 28 28 28 35 37 35 25 23 24 25 25 27
30 30 27 25 22 22 26 26 25 25 25 26 26 29 37 36 26 24 22 22 22 24
MSLP
1008.42 1008.68 1008.99 1009.56 1009.67 1010.37 1010.71 1011.32 1012.77 1013.53 1014.33 1015.07 1016.07 1016.73 1017.64 1018.43 1018.63 1019.03 1020.05 1020.60 1020.89 1021.31
1007.03 1007.68 1007.86 1008.60 1009.14 1009.69 1010.19 1010.64 1011.70 1012.61 1013.38 1013.89 1014.92 1015.98 1016.99 1017.59 1018.24 1018.70 1019.41 1019.93 1020.28 1021.02
1006.02 1006.23 1007.09 1007.54 1008.30 1008.97 1009.35 1009.98 1010.90 1011.80 1012.53 1013.43 1013.99 1014.64 1015.48 1016.60 1017.30 1018.14 1018.65 1019.49 1020.03 1020.48
1006.57 1007.13 1007.01 1007.17 1007.52 1007.80 1008.24 1008.91 1009.79 1010.60 1011.69 1012.33 1013.13 1014.03 1014.51 1015.10 1015.86 1016.81 1017.85 1018.42 1019.23 1019.83
1006.45 1006.70 1006.96 1006.68 1006.76 1007.42 1007.62 1008.01 1008.47 1009.40 1010.32 1011.48 1012.03 1012.92 1013.34 1014.02 1014.06 1014.86 1016.27 1017.29 1018.35 1019.07
1006.05 1006.07 1006.08 1005.61 1006.01 1006.37 1007.21 1007.68 1008.06 1008.36 1008.72 1009.85 1010.97 1011.86 1012.55 1012.57 1013.13 1013.48 1014.35 1015.72 1016.82 1017.71
1005.88 1005.35 1005.30 1005.32 1004.98 1005.57 1005.73 1006.14 1006.85 1007.12 1007.44 1007.60 1009.18 1010.09 1011.68 1011.89 1012.32 1012.83 1013.47 1014.45 1015.70 1016.62
1005.50 1004.84 1004.52 1004.43 1004.29 1004.85 1005.17 1005.58 1005.96 1005.97 1006.61 1006.70 1007.58 1008.40 1009.82 1010.56 1010.94 1011.70 1012.79 1013.79 1014.63 1015.52
1005.72 1004.77 1004.31 1004.24 1003.97 1004.02 1004.14 1004.88 1005.25 1005.46 1005.40 1006.07 1006.25 1006.93 1008.11 1009.28 1009.43 1010.29 1011.46 1012.78 1014.11 1014.94
1006.60 1005.20 1004.14 1003.64 1003.27 1003.48 1003.20 1003.82 1004.01 1004.47 1004.97 1004.71 1005.43 1006.14 1007.17 1008.06 1008.46 1009.19 1010.04 1011.08 1012.38 1013.67
1006.36 1005.11 1004.26 1003.51 1003.55 1003.03 1003.03 1002.97 1003.01 1003.56 1004.15 1004.13 1004.41 1005.10 1005.87 1007.09 1007.55 1008.06 1009.19 1010.07 1010.74 1011.67
1005.59 1005.04 1004.20 1003.50 1003.42 1002.91 1003.03 1002.74 1002.63 1002.94 1003.01 1003.35 1004.09 1004.22 1004.98 1005.97 1007.29 1007.82 1008.39 1009.69 1010.73 1011.35
1005.64 1005.14 1004.24 1003.87 1003.57 1003.08 1003.07 1002.80 1003.07 1002.79 1002.66 1002.61 1003.01 1003.77 1004.50 1005.22 1006.52 1007.51 1008.35 1009.25 1010.15 1010.93
1005.71 1005.28 1003.99 1003.15 1003.20 1003.24 1003.08 1002.12 1002.64 1002.30 1002.65 1002.78 1003.07 1002.72 1003.64 1004.51 1006.06 1006.58 1007.59 1008.45 1009.44 1010.28
Wind_Speed
8 6 8 9 9 10 12 13 13 14 13 12 12 10 10 7 7 8 6 8 5 3
11 10 11 9 7 8 7 9 12 15 15 14 14 13 11 8 9 9 8 7 7 4
12 13 9 9 12 11 10 10 13 15 15 14 14 15 14 9 9 11 8 6 9 6
7 7 6 10 11 13 12 14 15 16 16 16 16 15 15 14 13 14 11 9 11 10
7 8 9 12 13 12 13 13 15 15 15 16 17 17 18 17 16 17 15 14 12 11
8 9 14 14 12 12 12 12 13 15 17 17 17 17 18 18 17 17 17 16 15 14
9 13 14 12 11 12 14 15 16 17 18 18 18 18 18 17 16 15 14 15 14 14
13 11 11 10 10 10 14 14 15 15 16 16 16 15 19 19 18 17 15 14 14 13
16 11 10 11 11 12 13 14 13 16 16 15 13 26 32 23 17 18 17 16 13 12
14 12 11 8 7 11 12 11 14 14 15 17 16 28 32 31 16 17 17 17 16 13
15 15 11 6 10 10 9 12 13 14 15 15 15 29 32 31 16 16 17 17 18 17
13 15 14 11 10 8 8 9 11 12 14 16 14 28 30 28 14 14 15 14 14 15
15 13 12 12 10 7 8 9 8 10 11 14 14 25 30 27 11 13 11 12 12 19
18 16 11 8 4 5 9 7 8 7 7 10 12 16 30 33 13 12 12 11 11 10
Wind_Direction
216 195 201 187 183 187 192 195 185 191 187 184 181 178 177 182 180 163 177 182 172 168
197 202 199 182 179 183 185 180 176 184 185 181 179 179 176 181 181 174 177 182 171 161
210 204 194 168 184 187 184 174 173 185 189 186 184 180 176 179 175 177 178 175 172 169
221 222 187 192 196 194 182 180 181 184 190 187 187 188 186 184 174 183 177 174 180 183
218 200 205 210 208 201 198 190 185 183 187 190 191 191 192 190 183 180 182 181 179 182
232 211 223 221 211 200 199 194 192 185 187 191 196 194 201 193 187 186 185 181 182 179
246 233 234 232 210 201 196 191 195 198 197 189 191 192 200 194 188 187 184 179 183 177
279 258 248 231 216 205 205 210 208 197 203 192 192 191 193 193 187 182 180 180 180 183
310 279 237 231 218 204 202 210 205 209 199 198 199 200 197 192 185 182 180 179 181 176
317 298 276 251 223 222 209 202 207 208 207 205 206 203 201 197 189 183 184 178 174 173
328 323 300 259 246 233 217 210 206 210 212 209 210 206 201 197 191 187 187 183 177 176
328 323 314 286 259 249 238 221 216 213 206 208 214 206 200 190 188 185 178 176 177 176
318 309 304 288 273 252 238 234 223 220 212 204 201 203 202 190 179 178 171 168 170 177
305 295 286 272 235 233 234 204 215 207 207 202 197 197 202 190 187 178 171 171 170 178